TimeMST,TemperatureF,Dew PointF,Humidity,Sea Level PressureIn,VisibilityMPH,Wind Direction,Wind SpeedMPH,Gust SpeedMPH,PrecipitationIn,Events,Conditions,WindDirDegrees,DateUTC
12:53 AM,3.9,-0.9,80,30.12,9.0,WSW,11.5,-,N/A,,Clear,240,2013-01-30 07:53:00
1:53 AM,3.9,-0.0,84,30.08,-9999.0,West,9.2,-,N/A,,Clear,270,2013-01-30 08:53:00
2:53 AM,3.0,-0.9,84,30.06,-9999.0,Variable,3.5,-,N/A,,Clear,0,2013-01-30 09:53:00
3:53 AM,12.9,5.0,71,29.99,-9999.0,SW,19.6,25.3,N/A,,Mostly Cloudy,220,2013-01-30 10:53:00
4:53 AM,14.0,5.0,67,29.98,10.0,SW,16.1,23.0,N/A,,Mostly Cloudy,220,2013-01-30 11:53:00
5:53 AM,15.1,5.0,64,29.97,-9999.0,SW,17.3,25.3,N/A,,Overcast,220,2013-01-30 12:53:00
6:53 AM,14.0,3.9,64,29.98,10.0,SW,16.1,25.3,N/A,,Partly Cloudy,220,2013-01-30 13:53:00
7:53 AM,16.0,5.0,62,29.98,10.0,SW,17.3,-,N/A,,Mostly Cloudy,230,2013-01-30 14:53:00
8:53 AM,17.1,6.1,62,29.99,10.0,SW,16.1,-,N/A,,Partly Cloudy,230,2013-01-30 15:53:00
9:53 AM,19.9,8.1,60,29.99,10.0,SW,16.1,-,N/A,,Clear,220,2013-01-30 16:53:00
10:53 AM,26.1,10.9,53,29.99,10.0,SW,16.1,23.0,N/A,,Mostly Cloudy,230,2013-01-30 17:53:00
11:53 AM,28.9,15.1,56,29.99,10.0,WSW,21.9,27.6,N/A,,Mostly Cloudy,250,2013-01-30 18:53:00
12:53 PM,30.9,17.1,57,29.94,10.0,West,17.3,23.0,N/A,,Overcast,260,2013-01-30 19:53:00
1:53 PM,30.9,18.0,59,29.94,10.0,West,10.4,-,N/A,,Mostly Cloudy,280,2013-01-30 20:53:00
2:53 PM,32.0,18.0,56,29.94,10.0,West,9.2,-,N/A,,Overcast,270,2013-01-30 21:53:00
3:53 PM,32.0,18.0,56,29.91,10.0,WNW,11.5,-,N/A,,Mostly Cloudy,290,2013-01-30 22:53:00
4:53 PM,30.9,19.0,61,29.92,10.0,WNW,5.8,-,N/A,,Overcast,300,2013-01-30 23:53:00
5:53 PM,30.0,18.0,61,29.93,10.0,WSW,10.4,-,N/A,,Overcast,250,2013-01-31 00:53:00
6:53 PM,27.0,17.1,66,29.96,10.0,WSW,12.7,-,N/A,,Mostly Cloudy,250,2013-01-31 01:53:00
7:53 PM,24.1,15.1,69,29.98,10.0,WSW,15.0,-,N/A,,Clear,240,2013-01-31 02:53:00
8:53 PM,24.1,15.1,69,29.99,10.0,WSW,10.4,-,N/A,,Mostly Cloudy,250,2013-01-31 03:53:00
9:53 PM,23.0,18.0,81,30.00,10.0,NE,12.7,-,N/A,,Overcast,40,2013-01-31 04:53:00
10:53 PM,21.0,17.1,85,30.00,-9999.0,SW,3.5,-,0.00,Snow,Light Snow,230,2013-01-31 05:53:00
11:53 PM,21.9,17.1,82,30.01,-9999.0,North,-9999.0,-,0.00,Snow,Light Snow,0,2013-01-31 06:53:00